This is the latest recevied weather packets stored in our database for station/object W4OTS. If no packets are shown the sender has not sent any weather packets the latest 10 day(s).
| Time | Temp. | Humidity | Pressure | Rain* | Wind** | Luminosity | Snow |
|---|---|---|---|---|---|---|---|
| 1777814523 | 12.22° C | 53% | 1021.9 hPa | 0 mm | - | 462 W/m² | - |
| 1777814221 | 11.67° C | 56% | 1022 hPa | 0 mm | - | 376 W/m² | - |
| 1777813917 | 11.11° C | 58% | 1022.1 hPa | 0 mm | - | 393 W/m² | - |
| 1777813615 | 11.11° C | 60% | 1022.1 hPa | 0 mm | - | 342 W/m² | - |
| 1777813313 | 11.11° C | 62% | 1022.2 hPa | 0 mm | - | 49 W/m² | - |
| 1777813010 | 10.56° C | 61% | 1022.1 hPa | 0 mm | - | 48 W/m² | - |
| 1777812708 | 10.56° C | 63% | 1022.2 hPa | 0 mm | - | 47 W/m² | - |
| 1777812404 | 10.56° C | 64% | 1022.1 hPa | 0 mm | - | 46 W/m² | - |
| 1777812102 | 10° C | 65% | 1022 hPa | 0 mm | - | 45 W/m² | - |
| 1777811800 | 10° C | 66% | 1021.9 hPa | 0 mm | - | 44 W/m² | - |
| 1777811497 | 10° C | 68% | 1021.9 hPa | 0 mm | - | 43 W/m² | - |
| 1777811193 | 9.44° C | 69% | 1022.1 hPa | 0 mm | - | 42 W/m² | - |
| 1777810891 | 9.44° C | 70% | 1022.1 hPa | 0 mm | - | 41 W/m² | - |
| 1777810586 | 8.89° C | 72% | 1021.9 hPa | 0 mm | - | 41 W/m² | - |
| 1777810284 | 8.33° C | 74% | 1021.8 hPa | 0 mm | - | 39 W/m² | - |
| 1777809979 | 7.78° C | 81% | 1021.8 hPa | 0 mm | - | 38 W/m² | - |
| 1777809678 | 7.22° C | 80% | 1021.7 hPa | 0 mm | - | 37 W/m² | - |
| 1777809375 | 6.67° C | 82% | 1021.8 hPa | 0 mm | - | 35 W/m² | - |
| 1777809072 | 6.67° C | 83% | 1021.8 hPa | 0 mm | - | 34 W/m² | - |
| 1777808765 | 6.11° C | 83% | 1021.8 hPa | 0 mm | - | 33 W/m² | - |
| 1777808461 | 5.56° C | 85% | 1021.6 hPa | 0 mm | - | 31 W/m² | - |
| 1777808159 | 5° C | 89% | 1021.5 hPa | 0 mm | - | 29 W/m² | - |
| 1777807857 | 5° C | 89% | 1021.4 hPa | 0 mm | - | 28 W/m² | - |
| 1777807555 | 3.89° C | 92% | 1021.5 hPa | 0 mm | - | 25 W/m² | - |
| 1777807251 | 3.89° C | 94% | 1021.4 hPa | 0 mm | - | 23 W/m² | - |
* Rain latest hour (hover to see other rain measurements)
** Current wind speed in m/s (hover to see current wind gust speed)